Racecast

Oxbow Invitational

Oxbow Lake · 5000m · Boys · Varsity · 2018-10-17 · VA

Course difficulty: -0.066

Race-day weather: 49°F · wind 14 mph · humidity 72%

View full meet →

Team scores

Place Team Points 12345 67
1 Union (VA) 21 1 3 4 6 7 8 9
2 Lebanon (VA) 64 5 11 13 15 20 21 22
3 John I. Burton (VA) 87 12 14 18 19 24 30
4 Gate City (VA) 102 10 17 23 25 27 28 37
5 Eastside (VA) 109 2 16 26 29 36 38
6 Grundy (VA) 165 31 32 33 34 35

As scored by the meet.

Results

Place Athlete Grade School Time Rating Points
1 Jacob Mullins 11 Union (CA) 1 16:24 PR 118.7 1
2 Thomas Salyer 12 Eastside (GA) 1 16:36 PR 117.3 2
3 Nathan Hersel 10 Union (CA) 2 16:39 PR 116.9 3
4 Caiden Bartee 9 Union (CA) 3 17:21 PR 112.1 4
5 Adam Bowen 12 Lebanon (OR) 1 17:33 PR 110.8 5
6 Asher Whitt 9 Union (CA) 4 17:35 PR 110.5 6
7 Andrew Goodman 12 Union (CA) 5 17:58 PR 108.1 7
8 Gary Bishop 12 Union (CA) 6 18:03 PR 107.6 8
9 Ty Bloomer 12 Union (CA) 7 18:05 PR 107.4 9
10 Jeremy Benjamin 12 Gate City (VA) 1 18:08 PR 107.1 10
11 Jaxon Hess 11 Lebanon (OR) 2 18:12 PR 106.7 11
12 Chris Britton 12 Thomas Walker (VA) 1 18:17 PR 106.2
13 Jonah Cochrane 11 John I. Burton (VA) 1 18:23 PR 105.6 12
14 Channler Boothe-Moran 12 Lebanon (OR) 3 18:25 PR 105.4 13
15 Mason Bryington 9 Union (CA) 8 18:26 PR 105.3
16 Logan Lagow - John I. Burton (VA) 2 18:27 PR 105.2 14
17 Jesse Boatright - Union (CA) 9 18:29 PR 105.0
18 Jett Lilly 12 Lebanon (OR) 4 18:42 SR 103.8 15
19 Jacob Cress 10 Eastside (GA) 2 18:45 PR 103.5 16
20 Noah Jordan 9 Union (CA) 10 18:46 PR 103.4
21 Gabriel Hinkle 9 Gate City (VA) 2 18:51 PR 102.9 17
22 Isaac Crawford 10 Union (CA) 11 19:06 PR 101.5
23 Derrick Allen 12 John I. Burton (VA) 3 19:08 PR 101.4 18
24 Evan Stapleton 9 John I. Burton (VA) 4 19:10 PR 101.2 19
25 Malichi Gilliam 12 Rye Cove (VA) 1 19:11 SR 101.1
26 Hank Lane 12 Union (CA) 12 19:25 PR 99.9
27 Logan Smith 11 Lebanon (OR) 5 19:31 PR 99.4 20
28 Benjamin Hersel 9 Union (CA) 13 19:33 99.2
29 Skyler Bush 9 Lebanon (OR) 6 19:34 PR 99.1 21
30 Adam Jenkins 11 Thomas Walker (VA) 2 19:38 PR 98.8
31 Sam Farmer 12 Lebanon (OR) 7 19:42 PR 98.4 22
32 Zachary Carter 12 Gate City (VA) 3 19:46 SR 98.1 23
33 Elijah Lovell 10 John I. Burton (VA) 5 19:47 PR 98.0 24
34 Kai Wei Ni 9 Gate City (VA) 4 19:48 PR 97.9 25
35 Leon Grohnman 12 Thomas Walker (VA) 3 19:55 PR 97.3
36 Ahren Lee - Eastside (GA) 3 19:56 PR 97.2 26
37 Hunter Bull 9 Gate City (VA) 5 20:01 PR 96.8 27
38 Joe Townsend 10 Rye Cove (VA) 2 20:12 PR 95.9
39 Avery Hackney 12 Lebanon (OR) 8 20:21 PR 95.2
40 Landon Benton 9 Gate City (VA) 6 20:27 PR 94.7 28
41 Matthew Hicks - Eastside (GA) 4 20:30 PR 94.5 29
42 Isaiah Pennington 9 Union (CA) 14 20:39 PR 93.8
43 Ethan Lindsey - John I. Burton (VA) 6 20:44 PR 93.4 30
44 Parker Jackson 9 Grundy (VA) 1 20:46 PR 93.3 31
45 Caleb Stocks 10 Council (ID) 1 20:49 PR 93.0
46 Christian McGeorge 11 Grundy (VA) 2 20:50 PR 92.9 32
47 Jace Grabeel 12 Thomas Walker (VA) 4 21:05 PR 91.8
48 Shannen Dickenson 11 Lebanon (OR) 9 21:09 PR 91.5
49 Kaleb Demorrow 10 Grundy (VA) 3 21:22 PR 90.6 33
50 Sean Roth 11 Union (CA) 15 21:23 PR 90.5
51 Adrian Looney 11 Grundy (VA) 4 21:26 PR 90.3 34
52 Justin Owens 9 Grundy (VA) 5 21:31 PR 89.9 35
53 Hayden Lawson - Eastside (GA) 5 21:43 PR 89.1 36
54 Will Miller 9 Gate City (VA) 7 21:46 PR 88.9 37
55 Chase Templeton 11 Gate City (VA) 8 21:50 PR 88.6
56 Joshua Collins - Eastside (GA) 6 22:09 PR 87.3 38
57 Hunter Taylor 12 Council (ID) 2 22:14 PR 87.0
58 Sage Potts 10 Lebanon (OR) 10 22:26 PR 86.2
Something wrong on this page? Report it →